Date String (YYYY-MM-DD hh:mm:ss) UTC,Instrument flags,Ambient pressure (hPa),Sample flow (lpm),Bypass flow (lpm),Sample temperature (°C),Ambient temperature (°C),ASC tube jacket temperature (°C),LED temperature (°C),Box temperature (°C),Sample RH (%),Span deviation,Mass concentration (μg/m³),Mass concentration (μg/m³),Mass concentration (μg/m³)
DateTimeUTC,F1_M11,P_M11,Q1_M11,Q2_M11,T1_M11,T2_M11,T3_M11,T4_M11,T5_M11,U1_M11,ZSPAN_M11,X0_M11,X2_M11,X1_M11
2021-10-07 18:00:00,,0828.1,5.01,0.00,30.2,29.3,00.0,39.0,32.0,16.0,0000.0,0008.93,0003.71,0003.16
2021-10-07 18:01:00,,0828.1,5.00,0.00,30.1,27.8,00.0,39.0,31.6,16.1,0000.0,0009.02,0003.72,0003.15
2021-10-07 18:02:00,,0828.1,5.00,0.00,29.9,26.2,00.0,39.0,31.1,16.4,0000.0,0009.22,0003.73,0003.15
2021-10-07 18:03:00,,0828.1,5.00,0.00,29.8,26.3,00.0,39.0,31.1,16.4,0000.0,0008.62,0003.68,0003.15
2021-10-07 18:04:00,,0828.1,5.00,0.00,29.7,26.7,00.0,38.9,31.2,16.4,0000.0,0008.74,0003.69,0003.15
2021-10-07 18:05:00,,0828.1,5.01,0.00,29.7,27.2,00.0,38.9,31.3,16.2,0000.0,0008.85,0003.70,0003.15
2021-10-07 18:06:00,,0828.1,4.99,0.00,29.7,27.6,00.0,38.9,31.4,16.2,0000.0,0008.59,0003.66,0003.12
2021-10-07 18:07:00,,0828.1,5.01,0.00,29.8,28.0,00.0,38.8,31.5,16.1,0000.0,0008.31,0003.60,0003.11
2021-10-07 18:08:00,,0828.1,4.99,0.00,29.8,28.3,00.0,38.8,31.6,16.0,0000.0,0008.21,0003.56,0003.09
2021-10-07 18:09:00,,0828.1,4.99,0.00,29.8,28.6,00.0,38.8,31.7,16.2,0000.0,0008.26,0003.53,0003.06
2021-10-07 18:10:00,,0828.0,5.01,0.00,29.9,28.8,00.0,38.9,31.7,16.2,0000.0,0008.04,0003.54,0003.06
2021-10-07 18:11:00,,0828.1,5.01,0.00,29.9,29.0,00.0,38.9,31.8,16.2,0000.0,0007.40,0003.56,0003.06
2021-10-07 18:12:00,,0828.0,5.00,0.00,30.0,29.1,00.0,38.9,31.9,16.0,0000.0,0007.31,0003.52,0003.04
2021-10-07 18:13:00,,0828.0,4.99,0.00,30.0,28.2,00.0,38.9,31.6,15.7,0000.0,0006.93,0003.50,0003.03
2021-10-07 18:14:00,,0828.0,5.01,0.00,29.8,26.3,00.0,38.9,31.1,15.7,0000.0,0007.17,0003.48,0003.02
2021-10-07 18:15:00,,0828.0,4.99,0.00,29.7,26.0,00.0,38.9,31.0,15.7,0000.0,0007.02,0003.47,0003.03
2021-10-07 18:16:00,,0828.0,5.00,0.00,29.6,26.5,00.0,38.8,31.1,15.6,0000.0,0006.82,0003.46,0003.02
2021-10-07 18:17:00,,0828.0,5.01,0.00,29.6,27.0,00.0,38.8,31.2,15.7,0000.0,0006.45,0003.45,0003.01
2021-10-07 18:18:00,,0828.0,4.99,0.00,29.6,27.4,00.0,38.7,31.3,16.1,0000.0,0006.66,0003.46,0002.99
2021-10-07 18:19:00,,0827.9,5.01,0.00,29.6,27.8,00.0,38.7,31.4,16.2,0000.0,0007.64,0003.45,0002.97
2021-10-07 18:20:00,,0827.9,5.00,0.00,29.7,28.1,00.0,38.7,31.4,15.9,0000.0,0008.22,0003.43,0002.96
2021-10-07 18:21:00,,0828.0,4.99,0.00,29.7,28.4,00.0,38.7,31.5,16.1,0000.0,0008.69,0003.38,0002.93
2021-10-07 18:22:00,,0828.0,5.00,0.00,29.8,28.6,00.0,38.7,31.6,16.0,0000.0,0008.64,0003.35,0002.92
2021-10-07 18:23:00,,0827.9,5.00,0.00,29.8,28.8,00.0,38.8,31.7,15.8,0000.0,0008.69,0003.33,0002.91
2021-10-07 18:24:00,,0828.0,5.00,0.00,29.9,29.0,00.0,38.8,31.7,16.0,0000.0,0008.65,0003.32,0002.89
2021-10-07 18:25:00,,0827.9,5.00,0.00,29.9,29.1,00.0,38.8,31.9,15.6,0000.0,0008.46,0003.34,0002.88
2021-10-07 18:26:00,,0827.9,5.01,0.00,30.0,29.2,00.0,38.8,31.9,15.5,0000.0,0008.39,0003.33,0002.88
2021-10-07 18:27:00,,0828.0,5.01,0.00,30.0,28.9,00.0,38.9,31.8,15.7,0000.0,0008.67,0003.31,0002.86
2021-10-07 18:28:00,,0827.9,4.99,0.00,29.9,27.0,00.0,38.9,31.3,15.5,0000.0,0009.60,0003.31,0002.85
2021-10-07 18:29:00,,0827.9,5.00,0.00,29.7,26.1,00.0,38.8,31.0,15.9,0000.0,0010.18,0003.32,0002.85
2021-10-07 18:30:00,,0828.0,5.00,0.00,29.7,26.4,00.0,38.8,31.1,15.8,0000.0,0009.79,0003.32,0002.84
2021-10-07 18:31:00,,0827.9,5.00,0.00,29.6,26.8,00.0,38.8,31.3,15.9,0000.0,0009.49,0003.32,0002.84
2021-10-07 18:32:00,,0827.9,4.99,0.00,29.6,27.2,00.0,38.8,31.3,15.7,0000.0,0008.70,0003.34,0002.84
2021-10-07 18:33:00,,0827.9,5.02,0.00,29.6,27.7,00.0,38.7,31.4,15.6,0000.0,0009.00,0003.36,0002.83
2021-10-07 18:34:00,,0827.8,4.99,0.00,29.7,28.0,00.0,38.7,31.4,15.5,0000.0,0008.94,0003.36,0002.82
2021-10-07 18:35:00,,0827.8,5.02,0.00,29.7,28.3,00.0,38.7,31.5,15.2,0000.0,0008.87,0003.35,0002.81
2021-10-07 18:36:00,,0827.8,4.99,0.00,29.8,28.5,00.0,38.7,31.6,15.0,0000.0,0008.79,0003.31,0002.79
2021-10-07 18:37:00,,0827.9,5.01,0.00,29.8,28.7,00.0,38.7,31.7,15.1,0000.0,0009.38,0003.32,0002.77
2021-10-07 18:38:00,,0827.8,4.99,0.00,29.9,28.9,00.0,38.8,31.8,15.1,0000.0,0009.45,0003.32,0002.76
2021-10-07 18:39:00,,0827.9,5.01,0.00,29.9,28.9,00.0,38.8,31.8,15.1,0000.0,0008.67,0003.34,0002.74
2021-10-07 18:40:00,,0827.9,5.00,0.00,29.9,27.3,00.0,38.8,31.3,14.8,0000.0,0008.19,0003.31,0002.72
2021-10-07 18:41:00,,0827.8,5.01,0.00,29.7,25.9,00.0,38.8,30.9,14.9,0000.0,0007.77,0003.27,0002.71
2021-10-07 18:42:00,,0827.8,5.01,0.00,29.6,26.1,00.0,38.8,31.0,14.9,0000.0,0007.85,0003.24,0002.71
2021-10-07 18:43:00,,0827.8,4.98,0.00,29.5,26.5,00.0,38.7,31.1,15.2,0000.0,0008.02,0003.22,0002.70
2021-10-07 18:44:00,,0827.7,5.01,0.00,29.5,27.0,00.0,38.7,31.1,15.5,0000.0,0007.70,0003.18,0002.69
2021-10-07 18:45:00,,0827.7,4.99,0.00,29.5,27.4,00.0,38.6,31.2,15.5,0000.0,0008.20,0003.19,0002.68
2021-10-07 18:46:00,,0827.8,5.01,0.00,29.5,27.8,00.0,38.6,31.3,15.4,0000.0,0008.53,0003.19,0002.70
2021-10-07 18:47:00,,0827.8,4.99,0.00,29.6,28.1,00.0,38.6,31.4,15.1,0000.0,0008.70,0003.20,0002.71
2021-10-07 18:48:00,,0827.8,5.00,0.00,29.6,28.4,00.0,38.6,31.5,15.0,0000.0,0008.30,0003.17,0002.73
2021-10-07 18:49:00,,0827.8,5.02,0.00,29.7,28.6,00.0,38.7,31.6,14.8,0000.0,0008.92,0003.17,0002.73
2021-10-07 18:50:00,,0827.7,4.99,0.00,29.7,28.7,00.0,38.7,31.6,14.8,0000.0,0008.66,0003.13,0002.74
2021-10-07 18:51:00,,0827.7,5.00,0.00,29.8,28.9,00.0,38.7,31.7,14.7,0000.0,0008.59,0003.11,0002.75
2021-10-07 18:52:00,,0827.7,5.01,0.00,29.8,29.0,00.0,38.7,31.8,14.5,0000.0,0008.57,0003.10,0002.75
2021-10-07 18:53:00,,0827.7,4.99,0.00,29.9,29.1,00.0,38.7,31.8,14.3,0000.0,0008.68,0003.07,0002.73
2021-10-07 18:54:00,,0827.7,4.99,0.00,29.9,28.3,00.0,38.8,31.6,14.2,0000.0,0008.49,0003.06,0002.72
2021-10-07 18:55:00,,0827.7,5.01,0.00,29.7,26.3,00.0,38.7,31.1,14.1,0000.0,0008.84,0003.07,0002.71
2021-10-07 18:56:00,,0827.7,4.99,0.00,29.6,26.0,00.0,38.7,30.9,14.2,0000.0,0009.16,0003.05,0002.70
2021-10-07 18:57:00,,0827.6,5.01,0.00,29.5,26.4,00.0,38.7,31.0,14.4,0000.0,0008.90,0003.01,0002.67
2021-10-07 18:58:00,,0827.7,4.99,0.00,29.5,26.8,00.0,38.6,31.1,14.7,0000.0,0008.80,0002.98,0002.66
2021-10-07 18:59:00,,0827.6,5.02,0.00,29.5,27.3,00.0,38.6,31.2,14.6,0000.0,0008.72,0002.98,0002.65
